Location: Zapote
(9.9191°N, 84.0597°W)
Time: 12:54:54
(UTC-06:00)

Vanguard 2 Rocket - All Passes

Search period start: 28 February 2021 00:00
Search period end: 10 March 2021 00:00
Orbit: 554 x 3325 km, 32.9° (Epoch: 28 February)

Date Brightness Start Highest point End Pass type
(mag) Time Alt. Az. Time Alt. Az. Time Alt. Az.
28 Feb - 00:48:27 10° SSW 00:52:10 33° SE 00:57:02 10° ENE night (unlit)
28 Feb - 03:00:37 10° W 03:05:28 36° NNW 03:13:10 10° NE visible
28 Feb - 05:15:55 10° NW 05:22:16 22° N 05:31:28 10° NE visible
28 Feb - 07:30:55 10° NW 07:41:42 30° NNE 07:56:58 10° ENE daylight
28 Feb - 09:45:17 10° NW 10:01:40 58° NNE 10:21:33 10° ESE daylight
28 Feb - 12:01:28 10° WNW 12:21:03 73° SW 12:39:22 10° SE daylight
28 Feb - 14:23:34 10° W 14:39:08 28° SW 14:51:41 10° SSE daylight
28 Feb - 23:50:49 10° S 23:52:57 14° SE 23:55:15 10° ESE night (unlit)
01 Mar - 02:01:10 10° WSW 02:05:30 54° NNW 02:12:10 10° NE visible
01 Mar - 04:15:53 10° NW 04:21:00 21° N 04:28:25 10° NE visible
01 Mar - 06:31:04 10° NW 06:39:27 24° NNE 06:51:29 10° ENE daylight
01 Mar - 08:45:01 10° NW 08:59:00 46° NNE 09:17:55 10° E daylight
01 Mar - 10:59:56 10° NW 11:18:25 90° SW 11:38:15 10° SE daylight
01 Mar - 13:19:00 10° WNW 13:37:06 41° SW 13:52:35 10° SSE daylight
01 Mar - 15:53:59 10° SW 15:55:30 10° SW 15:56:58 10° SSW daylight
02 Mar - 01:02:00 10° SW 01:06:00 81° SSE 01:11:31 10° ENE night (unlit)
02 Mar - 03:15:53 10° WNW 03:20:16 23° NNW 03:26:34 10° NE visible
02 Mar - 05:31:20 10° NW 05:37:37 20° N 05:46:25 10° NE visible
02 Mar - 07:45:07 10° NW 07:56:38 36° NNE 08:13:15 10° E daylight
02 Mar - 09:59:06 10° NW 10:15:46 73° NNE 10:36:13 10° ESE daylight
02 Mar - 12:15:58 10° WNW 12:34:46 55° SW 12:52:37 10° SE daylight
02 Mar - 14:41:28 10° WSW 14:53:20 19° SW 15:03:27 10° S daylight
03 Mar - 00:03:12 10° SSW 00:06:48 34° SE 00:10:55 10° ENE night (unlit)
03 Mar - 02:16:00 10° W 02:19:59 28° NNW 02:25:38 10° NE visible
03 Mar - 04:31:37 10° NW 04:36:14 17° N 04:42:25 10° NE visible
03 Mar - 06:45:32 10° NW 06:54:35 27° NNE 07:07:50 10° ENE daylight
03 Mar - 08:58:49 10° NW 09:13:18 58° NNE 09:33:11 10° ESE daylight
03 Mar - 11:14:04 10° WNW 11:32:13 71° SW 11:51:52 10° SE daylight
03 Mar - 13:35:12 10° W 13:51:04 29° SW 14:05:03 10° SSE daylight
03 Mar - 23:05:03 10° S 23:07:30 15° SE 23:09:54 10° ESE night (unlit)
04 Mar - 01:16:18 10° W 01:20:09 43° NNW 01:25:19 10° NE night (unlit)
04 Mar - 03:31:44 10° NW 03:35:17 15° N 03:39:52 10° NNE visible
04 Mar - 05:46:13 10° NNW 05:52:53 20° NNE 06:02:17 10° ENE daylight
04 Mar - 07:59:01 10° NW 08:11:09 44° NNE 08:29:08 10° E daylight
04 Mar - 10:13:00 10° WNW 10:29:39 88° SW 10:50:17 10° SE daylight
04 Mar - 12:31:09 10° W 12:48:38 40° SW 13:05:28 10° SSE daylight
04 Mar - 15:02:56 10° SW 15:08:14 12° SSW 15:13:08 10° SSW daylight
05 Mar - 00:16:51 10° WSW 00:20:44 88° NW 00:25:18 10° NE night (unlit)
05 Mar - 02:31:36 10° NW 02:34:44 16° NNW 02:38:44 10° NNE visible
05 Mar - 04:47:04 10° NNW 04:51:30 15° N 04:57:17 10° NE visible
05 Mar - 06:59:35 10° NW 07:09:21 33° NNE 07:24:11 10° E daylight
05 Mar - 09:12:38 10° NW 09:27:17 74° NE 09:47:49 10° ESE daylight
05 Mar - 11:28:37 10° WNW 11:46:05 54° SW 12:05:03 10° SE daylight
05 Mar - 13:53:01 10° WSW 14:05:32 20° SW 14:16:53 10° S daylight
05 Mar - 23:17:38 10° SW 23:21:31 39° SE 23:25:17 10° ENE night (unlit)
06 Mar - 01:31:23 10° WNW 01:34:36 21° NNW 01:38:36 10° NNE night (unlit)
06 Mar - 03:47:59 10° NNW 03:50:27 12° N 03:53:20 10° NNE visible
06 Mar - 06:00:28 10° NNW 06:07:52 24° NNE 06:18:42 10° ENE daylight
06 Mar - 08:12:47 10° NW 08:25:17 57° NNE 08:44:25 10° ESE daylight
06 Mar - 10:27:11 10° WNW 10:43:31 69° SW 11:03:51 10° SE daylight
06 Mar - 12:47:21 10° W 13:02:50 29° SW 13:17:53 10° SSE daylight
06 Mar - 22:18:46 10° SSW 22:22:05 19° SSE 22:24:59 10° E night (unlit)
07 Mar - 00:31:17 10° W 00:34:53 34° NNW 00:39:00 10° NE night (unlit)
07 Mar - 02:48:35 10° NNW 02:49:43 11° N 02:50:56 10° N visible
07 Mar - 05:01:43 10° NNW 05:06:39 16° NNE 05:13:13 10° NE visible
07 Mar - 07:13:21 10° NW 07:23:42 42° NNE 07:40:06 10° E daylight
07 Mar - 09:26:34 10° WNW 09:41:10 86° SW 10:01:50 10° SE daylight
07 Mar - 11:43:51 10° W 12:00:09 39° SW 12:17:49 10° SSE daylight
07 Mar - 14:13:50 10° SW 14:20:44 12° SSW 14:27:14 10° S daylight
07 Mar - 21:20:51 10° S 21:22:14 11° SSE 21:23:32 10° SE night (unlit)
07 Mar - 23:31:23 10° WSW 23:35:33 75° NNW 23:39:33 10° NE night (unlit)
08 Mar - 01:47:43 10° NW 01:49:18 12° NNW 01:51:02 10° N night (unlit)
08 Mar - 04:03:42 10° N 04:05:38 11° NNE 04:07:50 10° NNE visible
08 Mar - 06:14:19 10° NNW 06:22:29 30° NNE 06:35:07 10° E daylight
08 Mar - 08:26:34 10° NW 08:39:13 75° NE 08:58:59 10° ESE daylight
08 Mar - 10:41:48 10° WNW 10:57:31 51° SW 11:16:56 10° SE daylight
08 Mar - 13:05:08 10° WSW 13:17:37 20° SSW 13:29:45 10° S daylight
08 Mar - 22:31:39 10° SW 22:36:16 48° SSE 22:40:03 10° ENE night (unlit)
09 Mar - 00:46:40 10° WNW 00:49:15 16° NNW 00:52:03 10° NNE night (unlit)
09 Mar - 05:15:40 10° NNW 05:21:31 20° NNE 05:29:46 10° ENE visible
09 Mar - 07:27:04 10° NW 07:37:44 57° NE 07:55:21 10° ESE daylight
09 Mar - 09:40:47 10° WNW 09:55:07 66° SW 10:15:19 10° SE daylight
09 Mar - 12:00:06 10° W 12:14:38 28° SSW 12:30:10 10° SSE daylight
09 Mar - 21:32:03 10° SSW 21:36:43 26° SSE 21:40:16 10° E night (unlit)
09 Mar - 23:45:59 10° W 23:49:37 29° NNW 23:53:10 10° NNE night (unlit)
